This demonstration page uses our WeatherBlox Daily Observations layout. Learn more.

Hourly Observations for October 10, 2019

Temp ( °F °C ) Dew Point ( °F °C ) Humidity (%) Winds ( mph kmh ) Pressure ( in mb ) Visibility ( mi km ) Precip ( " mm )
12:15 am 00:15 Cloudy with Light Drizzle 46 8 46 7.8 99 99 N 15 24 29.8 1009 5 8.04672 0 0
12:35 am 00:35 Cloudy with Light Rain 46 7.6 46 7.5 99 99 NNE 21 33 29.8 1009 5 8.04672 0 0
12:55 am 00:55 Cloudy with Light Rain 46 7.5 45 7.2 98 98 N 16 26 29.8 1009 7 11.265408 0 0
1:15 am 01:15 Cloudy with Light Rain 45 7.4 45 7.2 99 99 N 16 26 29.8 1009 7 11.265408 0.01 0.254
1:35 am 01:35 Cloudy with Light Drizzle 45 7.3 45 7.2 99 99 N 16 26 29.8 1009 7 11.265408 0.01 0.254
1:55 am 01:55 Cloudy with Light Drizzle 45 7.3 45 7.1 99 99 NNE 21 33 29.8 1009 7 11.265408 0.01 0.254
2:15 am 02:15 Cloudy with Light Drizzle 45 7.2 45 7.1 99 99 N 12 19 29.8 1009 10 16.09344 0 0
2:35 am 02:35 Cloudy 45 7.1 44 6.9 99 99 N 15 24 29.77 1008 10 16.09344 0 0
2:55 am 02:55 Cloudy 45 7.1 45 7 99 99 N 17 28 29.83 1010 10 16.09344 0 0
3:15 am 03:15 Cloudy 44 6.9 44 6.6 98 98 N 21 33 29.83 1010 10 16.09344 0 0
3:35 am 03:35 Cloudy with Mist and Fog 44 6.5 43 6.1 97 97 N 21 33 29.83 1010 5 8.04672 0 0
3:55 am 03:55 Cloudy with Light Drizzle 43 6.1 43 6 99 99 N 16 26 29.83 1010 5 8.04672 0 0
4:15 am 04:15 Cloudy with Light Rain 42 5.7 42 5.5 99 99 N 17 28 29.83 1010 4 6.437376 0 0
4:35 am 04:35 Cloudy with Mist and Fog 42 5.6 42 5.4 99 99 N 20 31 29.83 1010 4 6.437376 0 0
4:55 am 04:55 Cloudy with Mist and Fog 42 5.5 41 5.2 98 98 N 18 30 29.83 1010 4 6.437376 0 0
5:15 am 05:15 Cloudy with Light Rain 41 5.1 41 4.9 99 99 N 21 33 29.83 1010 4 6.437376 0.01 0.254
5:35 am 05:35 Cloudy with Rain 40 4.6 40 4.4 99 99 N 24 39 29.83 1010 4 6.437376 0.01 0.254
5:55 am 05:55 Cloudy with Light Rain 39 3.8 38 3.5 98 98 N 22 35 29.88 1012 4 6.437376 0.02 0.508
6:15 am 06:15 Cloudy with Light Rain 38 3.3 37 3 98 98 N 23 37 29.88 1012 5 8.04672 0.01 0.254
6:35 am 06:35 Cloudy with Light Rain 38 3.2 37 2.8 97 97 N 23 37 29.91 1013 7 11.265408 0.01 0.254
6:55 am 06:55 Cloudy with Light Rain 37 3 37 2.5 97 97 N 25 41 29.91 1013 5 8.04672 0.01 0.254
7:15 am 07:15 Cloudy with Light Drizzle 37 2.8 36 2.3 97 97 N 18 30 29.91 1013 7 11.265408 0 0
7:35 am 07:35 Cloudy with Light Drizzle 37 2.5 36 2 97 97 N 23 37 29.94 1014 7 11.265408 0 0
7:55 am 07:55 Cloudy 37 2.5 35 1.8 95 95 N 21 33 29.94 1014 7 11.265408 0 0
8:15 am 08:15 Cloudy with Light Rain 37 2.5 35 1.7 95 95 NNW 18 30 29.94 1014 10 16.09344 0 0
8:35 am 08:35 Cloudy with Light Rain 36 2.2 35 1.5 95 95 N 26 43 29.97 1015 7 11.265408 0 0
8:55 am 08:55 Cloudy 36 2.1 35 1.5 96 96 N 21 33 29.97 1015 7 11.265408 0 0
9:15 am 09:15 Cloudy with Mist and Fog 36 2.1 35 1.4 95 95 NNW 22 35 29.97 1015 4 6.437376 0 0
9:35 am 09:35 Cloudy with Mist and Fog 36 2 35 1.4 96 96 N 22 35 30.03 1017 3 4.828032 0 0
9:55 am 09:55 Cloudy 36 2 34 1.2 95 95 N 22 35 30.03 1017 7 11.265408 0 0
10:15 am 10:15 Cloudy 36 2 33 0.6 91 91 NNW 18 30 30.03 1017 10 16.09344 0 0
10:35 am 10:35 Cloudy with Mist and Fog 36 2 34 1.1 94 94 NNW 17 28 30.06 1018 5 8.04672 0 0
10:55 am 10:55 Cloudy with Mist and Fog 35 1.6 33 0.6 93 93 NNW 17 28 30.06 1018 5 8.04672 0 0
11:15 am 11:15 Cloudy with Mist and Fog 35 1.7 34 1 95 95 NNW 18 30 30.06 1018 4 6.437376 0 0
11:35 am 11:35 Cloudy with Mist and Fog 35 1.5 33 0.7 94 94 NNW 24 39 30.06 1018 5 8.04672 0 0
11:55 am 11:55 Cloudy with Mist and Fog 35 1.6 33 0.7 94 94 NNW 18 30 30.06 1018 5 8.04672 0 0
12:15 pm 12:15 Cloudy with Mist and Fog 35 1.5 33 0.7 94 94 N 18 30 30.06 1018 4 6.437376 0 0
12:55 pm 12:55 Cloudy 34 1.3 32 0.2 92 92 NNW 21 33 30.06 1018 7 11.265408 0 0
1:15 pm 13:15 Cloudy 34 1.3 32 0.2 92 92 NNW 24 39 30.06 1018 7 11.265408 0 0
1:35 pm 13:35 Cloudy 34 1.3 32 0 91 91 NNW 20 31 30.09 1019 10 16.09344 0 0
1:55 pm 13:55 Cloudy 35 1.4 31 -0.4 88 88 NNW 21 33 30.09 1019 10 16.09344 0 0
2:15 pm 14:15 Cloudy 34 1.3 31 -0.7 87 87 NNW 20 31 30.09 1019 10 16.09344 0 0
2:35 pm 14:35 Cloudy 34 1.3 30 -1 85 85 NNW 18 30 30.09 1019 10 16.09344 0 0
2:55 pm 14:55 Cloudy 34 1.3 31 -0.8 86 86 NNW 20 31 30.09 1019 7 11.265408 0 0
3:15 pm 15:15 Cloudy 35 1.5 31 -0.5 87 87 NW 17 28 30.09 1019 10 16.09344 0 0
3:35 pm 15:35 Cloudy 35 1.5 31 -0.5 87 87 NNW 20 31 30.09 1019 10 16.09344 0 0
3:55 pm 15:55 Cloudy 35 1.5 30 -1.1 83 83 NNW 25 41 30.12 1020 10 16.09344 0 0
4:15 pm 16:15 Cloudy 35 1.5 29 -1.5 81 81 NNW 23 37 30.12 1020 10 16.09344 0 0
4:35 pm 16:35 Cloudy 34 1.2 29 -1.6 82 82 NNW 21 33 30.12 1020 10 16.09344 0 0
4:55 pm 16:55 Cloudy 35 1.6 28 -2 77 77 NNW 23 37 30.12 1020 10 16.09344 0 0
5:15 pm 17:15 Cloudy 35 1.7 28 -2.2 76 76 NW 25 41 30.15 1021 10 16.09344 0 0
5:35 pm 17:35 Cloudy 36 2 28 -2.5 72 72 NNW 22 35 30.15 1021 10 16.09344 0 0
5:55 pm 17:55 Cloudy 35 1.6 28 -2.5 74 74 NNW 17 28 30.15 1021 10 16.09344 0 0
6:15 pm 18:15 Cloudy 34 1.3 27 -2.8 74 74 NNW 18 30 30.15 1021 10 16.09344 0 0
6:35 pm 18:35 Cloudy 34 1.2 27 -2.6 76 76 NW 21 33 30.15 1021 10 16.09344 0 0
6:55 pm 18:55 Cloudy 33 0.7 26 -3.2 75 75 NNW 20 31 30.15 1021 10 16.09344 0 0
7:15 pm 19:15 Cloudy 33 0.6 27 -3 77 77 NNW 16 26 30.18 1022 10 16.09344 0 0
7:35 pm 19:35 Cloudy 33 0.8 26 -3.5 73 73 NNW 15 24 30.18 1022 10 16.09344 0 0
7:55 pm 19:55 Cloudy 33 0.5 26 -3.6 74 74 NNW 21 33 30.24 1024 10 16.09344 0 0
8:15 pm 20:15 Cloudy 32 0.2 26 -3.4 77 77 NW 21 33 30.24 1024 10 16.09344 0 0
8:35 pm 20:35 Cloudy 32 0 26 -3.6 77 77 NW 18 30 30.24 1024 10 16.09344 0 0
8:55 pm 20:55 Cloudy 32 0 25 -3.8 76 76 NNW 20 31 30.24 1024 10 16.09344 0 0
9:15 pm 21:15 Mostly Cloudy 32 0 25 -4 75 75 NNW 15 24 30.24 1024 10 16.09344 0 0
9:35 pm 21:35 Mostly Cloudy 32 0 25 -4 75 75 NNW 20 31 30.24 1024 10 16.09344 0 0
9:55 pm 21:55 Mostly Cloudy 32 -0.2 24 -4.2 75 75 NNW 16 26 30.24 1024 10 16.09344 0 0
10:15 pm 22:15 Mostly Cloudy 31 -0.5 24 -4.2 76 76 NW 17 28 30.27 1025 10 16.09344 0 0
10:35 pm 22:35 Partly Cloudy 31 -0.7 24 -4.2 77 77 NW 13 20 30.27 1025 10 16.09344 0 0
10:55 pm 22:55 Partly Cloudy 31 -0.8 24 -4.3 77 77 NW 13 20 30.27 1025 10 16.09344 0 0
11:15 pm 23:15 Cloudy 31 -0.7 24 -4.5 76 76 NW 16 26 30.27 1025 10 16.09344 0 0
11:35 pm 23:35 Cloudy 31 -0.4 24 -4.4 75 75 NW 10 17 30.27 1025 10 16.09344 0 0
11:55 pm 23:55 Cloudy 31 -0.3 24 -4.3 75 75 NW 17 28 30.3 1026 10 16.09344 0 0

Powered by AerisWeather